Location: Newark
(45.4422°N, 16.2769°E)
Time: 00:59:14
(UTC+00:00)

Explorer 7 - Visible Passes

Search period start: 06 December 2019 00:00
Search period end: 16 December 2019 00:00
Orbit: 485 x 680 km, 50.3° (Epoch: 05 December)

Date Brightness Start Highest point End Pass type
(mag) Time Alt. Az. Time Alt. Az. Time Alt. Az.
06 Dec 7.6 16:13:04 10° SW 16:17:49 52° SE 16:21:29 16° ENE visible
06 Dec 7.8 17:53:38 10° W 17:57:49 54° NW 17:57:49 54° NW visible
07 Dec 7.3 16:17:49 10° SW 16:22:42 73° SSE 16:26:18 18° ENE visible
07 Dec 8.1 17:58:46 10° W 18:02:38 45° NW 18:02:38 45° NW visible
08 Dec 7.2 16:22:44 10° WSW 16:27:39 85° NNW 16:31:05 20° ENE visible
08 Dec 8.4 18:03:55 10° W 18:07:24 38° NW 18:07:24 38° NW visible
09 Dec 7.4 16:27:46 10° WSW 16:32:40 68° NNW 16:35:51 22° ENE visible
09 Dec 8.6 18:09:02 10° WNW 18:12:10 34° NW 18:12:10 34° NW visible
10 Dec 7.6 16:32:52 10° W 16:37:43 57° NNW 16:40:37 23° ENE visible
10 Dec 8.8 18:14:08 10° WNW 18:16:56 31° NW 18:16:56 31° NW visible
11 Dec 7.7 16:38:00 10° W 16:42:48 50° N 16:45:22 25° NE visible
11 Dec 8.9 18:19:10 10° WNW 18:21:42 28° NW 18:21:42 28° NW visible
12 Dec 7.7 16:43:08 10° WNW 16:47:55 47° N 16:50:09 28° NE visible
12 Dec 9.1 18:24:11 10° WNW 18:26:29 27° WNW 18:26:29 27° WNW visible
13 Dec 7.7 16:48:15 10° WNW 16:53:01 47° N 16:54:58 31° ENE visible
13 Dec 9.2 18:29:09 10° WNW 18:31:17 26° WNW 18:31:17 26° WNW visible
14 Dec 7.6 16:53:19 10° WNW 16:58:08 50° N 16:59:50 34° ENE visible
14 Dec 9.3 18:34:08 10° WNW 18:36:09 25° WNW 18:36:09 25° WNW visible
15 Dec 7.4 16:58:21 10° WNW 17:03:13 57° NNE 17:04:45 39° ENE visible
15 Dec 9.4 18:39:08 10° WNW 18:41:05 23° WNW 18:41:05 23° WNW visible
